SHARC (42712 NORAD) Tracking and Keplerian Element Data

This shows tracking and keplerian element data for the satellite.

Feedback or suggestion? Click here.




ElementValue
Catalog42712
NameSHARC
Epoch Orbit8604
Epoch Day323.37884031
Epoch Year2018
RAAN295.2144
Inclination51.634
Eccentricity0.0004267
Argument of Perigee68.9948
Mean Anonmoly291.1506
Mean Motion15.73155721
Decay Rate0.00043939
L11 42712U 98067LT 18323.37884031 .00043939 00000-0 31580-3 0 9995
L22 42712 51.6340 295.2144 0004267 68.9948 291.1506 15.73155721 86046

Live tracking and technical data element details for SHARC (NORAD 42712). SHARC can be tracked NOW for your location showing map with azimuth and elevation plus other details from your city location.

Track the satellite on the map from your city or location and see movement details for azimuth, elevation, latitude, longitude, range, height, and movement on the map or in text.







IsCatalogInMostPopularTable: catalog: 42712, numindb: 140
Update: records affected: 1



GetName: 42712 SHARC

Hit Count: updated at: Wed, 21 Nov 2018 06:16:53 GMT